Time,TemperatureF,DewpointF,PressureIn,WindDirection,WindDirectionDegrees,WindSpeedMPH,WindSpeedGustMPH,Humidity,HourlyPrecipIn,Conditions,Clouds,dailyrainin,SolarRadiationWatts/m^2,SoftwareType,DateUTC
2014-02-15 00:00:00,49.7,40.7,30.04,NNE,20,0.0,0.0,71,0.00,,,0.01,0,Wunderground v.1.15,2014-02-15 06:00:00,
2014-02-15 00:09:00,48.9,39.9,30.04,NNE,20,0.0,0.0,71,0.00,,,0.00,0,Wunderground v.1.15,2014-02-15 06:09:00,
2014-02-15 00:14:00,48.4,40.5,30.04,NNE,20,0.0,0.0,74,0.00,,,0.00,0,Wunderground v.1.15,2014-02-15 06:14:00,
2014-02-15 00:19:00,47.9,40.7,30.04,NNE,20,0.0,0.0,76,0.00,,,0.00,0,Wunderground v.1.15,2014-02-15 06:19:00,
2014-02-15 00:24:00,47.4,40.2,30.04,NNE,20,0.0,0.0,76,0.00,,,0.00,0,Wunderground v.1.15,2014-02-15 06:24:00,
2014-02-15 00:29:00,47.0,40.5,30.04,NNE,20,0.0,0.0,78,0.00,,,0.00,0,Wunderground v.1.15,2014-02-15 06:29:00,
2014-02-15 00:39:00,46.3,39.8,30.04,NNE,20,0.0,0.0,78,0.00,,,0.00,0,Wunderground v.1.15,2014-02-15 06:39:00,
2014-02-15 00:49:00,45.7,39.9,30.04,NNE,20,0.0,0.0,80,0.00,,,0.00,0,Wunderground v.1.15,2014-02-15 06:49:00,
2014-02-15 00:54:00,45.5,39.7,30.04,NNE,20,0.0,0.0,80,0.00,,,0.00,0,Wunderground v.1.15,2014-02-15 06:54:00,
2014-02-15 00:59:00,45.3,39.5,30.04,NNE,20,0.0,0.0,80,0.00,,,0.00,0,Wunderground v.1.15,2014-02-15 06:59:00,
2014-02-15 01:09:00,44.9,39.1,30.03,NNE,20,0.0,0.0,80,0.00,,,0.00,0,Wunderground v.1.15,2014-02-15 07:09:00,
2014-02-15 01:14:00,44.5,39.0,30.04,NNE,20,0.0,0.0,81,0.00,,,0.00,0,Wunderground v.1.15,2014-02-15 07:14:00,
2014-02-15 01:19:00,44.3,39.2,30.04,NNE,20,0.0,0.0,82,0.00,,,0.00,0,Wunderground v.1.15,2014-02-15 07:19:00,
2014-02-15 01:24:00,44.2,39.1,30.04,NNE,20,0.0,0.0,82,0.00,,,0.00,0,Wunderground v.1.15,2014-02-15 07:24:00,
2014-02-15 01:29:00,44.1,39.6,30.04,NNE,20,0.0,0.0,84,0.00,,,0.00,0,Wunderground v.1.15,2014-02-15 07:29:00,
2014-02-15 01:39:00,43.7,39.8,30.06,NNE,20,0.0,0.0,86,0.00,,,0.00,0,Wunderground v.1.15,2014-02-15 07:39:00,
2014-02-15 01:44:00,43.4,39.8,30.06,NNE,20,0.0,0.0,87,0.00,,,0.00,0,Wunderground v.1.15,2014-02-15 07:44:00,
2014-02-15 01:49:00,43.1,39.5,30.07,NNE,20,0.0,0.0,87,0.00,,,0.00,0,Wunderground v.1.15,2014-02-15 07:49:00,
2014-02-15 01:54:00,42.8,39.2,30.08,NNE,20,0.0,0.0,87,0.00,,,0.00,0,Wunderground v.1.15,2014-02-15 07:54:00,
2014-02-15 01:59:00,42.5,38.9,30.08,NNE,20,0.0,0.0,87,0.00,,,0.00,0,Wunderground v.1.15,2014-02-15 07:59:00,
2014-02-15 02:09:00,42.2,38.3,30.09,NNE,20,0.0,0.0,86,0.00,,,0.00,0,Wunderground v.1.15,2014-02-15 08:09:00,
2014-02-15 02:14:00,42.1,38.2,30.09,NNE,20,0.0,0.0,86,0.00,,,0.00,0,Wunderground v.1.15,2014-02-15 08:14:00,
2014-02-15 02:19:00,42.0,38.1,30.09,NNE,20,0.0,0.0,86,0.00,,,0.00,0,Wunderground v.1.15,2014-02-15 08:19:00,
2014-02-15 02:30:00,41.8,38.2,30.09,NNE,20,0.0,0.0,87,0.00,,,0.00,0,Wunderground v.1.15,2014-02-15 08:30:00,
2014-02-15 02:39:00,41.5,37.9,30.08,NNE,20,0.0,0.0,87,0.00,,,0.00,0,Wunderground v.1.15,2014-02-15 08:39:00,
2014-02-15 02:44:00,41.3,37.7,30.08,NNE,20,0.0,0.0,87,0.00,,,0.00,0,Wunderground v.1.15,2014-02-15 08:44:00,
2014-02-15 02:54:00,40.9,37.6,30.06,NNE,20,0.0,0.0,88,0.00,,,0.00,0,Wunderground v.1.15,2014-02-15 08:54:00,
2014-02-15 02:59:00,40.8,37.5,30.06,NNE,20,0.0,0.0,88,0.00,,,0.00,0,Wunderground v.1.15,2014-02-15 08:59:00,
2014-02-15 03:04:00,41.0,37.7,30.07,NNE,20,0.0,0.0,88,0.00,,,0.00,0,Wunderground v.1.15,2014-02-15 09:04:00,
2014-02-15 03:09:00,41.0,37.4,30.07,NNE,20,0.0,0.0,87,0.00,,,0.00,0,Wunderground v.1.15,2014-02-15 09:09:00,
2014-02-15 03:14:00,41.0,37.4,30.08,NNE,20,0.0,0.0,87,0.00,,,0.00,0,Wunderground v.1.15,2014-02-15 09:14:00,
2014-02-15 03:19:00,40.9,37.3,30.08,NNE,20,0.0,0.0,87,0.00,,,0.00,0,Wunderground v.1.15,2014-02-15 09:19:00,
2014-02-15 03:24:00,40.7,37.1,30.08,NNE,20,0.0,0.0,87,0.00,,,0.00,0,Wunderground v.1.15,2014-02-15 09:24:00,
2014-02-15 03:29:00,40.6,37.0,30.08,NNE,20,0.0,0.0,87,0.00,,,0.00,0,Wunderground v.1.15,2014-02-15 09:29:00,
2014-02-15 03:39:00,40.6,37.0,30.08,NNE,20,0.0,0.0,87,0.00,,,0.00,0,Wunderground v.1.15,2014-02-15 09:39:00,
2014-02-15 03:44:00,40.5,36.9,30.08,NNE,20,0.0,0.0,87,0.00,,,0.00,0,Wunderground v.1.15,2014-02-15 09:44:00,
2014-02-15 03:49:00,40.4,36.8,30.08,NNE,20,0.0,0.0,87,0.00,,,0.00,0,Wunderground v.1.15,2014-02-15 09:49:00,
2014-02-15 03:54:00,40.3,36.4,30.08,NNE,20,0.0,0.0,86,0.00,,,0.00,0,Wunderground v.1.15,2014-02-15 09:54:00,
2014-02-15 04:04:00,40.2,36.6,30.07,NNE,20,0.0,0.0,87,0.00,,,0.00,0,Wunderground v.1.15,2014-02-15 10:04:00,
2014-02-15 04:09:00,40.1,36.5,30.07,NNE,20,0.0,0.0,87,0.00,,,0.00,0,Wunderground v.1.15,2014-02-15 10:09:00,
2014-02-15 04:19:00,39.9,36.1,30.07,NNE,20,0.0,0.0,86,0.00,,,0.00,0,Wunderground v.1.15,2014-02-15 10:19:00,
2014-02-15 04:24:00,40.1,36.0,30.07,NNE,20,0.0,0.0,85,0.00,,,0.00,0,Wunderground v.1.15,2014-02-15 10:24:00,
2014-02-15 04:34:00,40.0,36.2,30.08,NNE,20,0.0,0.0,86,0.00,,,0.00,0,Wunderground v.1.15,2014-02-15 10:34:00,
2014-02-15 04:39:00,40.0,36.4,30.08,NNE,20,0.0,0.0,87,0.00,,,0.00,0,Wunderground v.1.15,2014-02-15 10:39:00,
2014-02-15 04:44:00,39.8,36.5,30.09,NNE,20,0.0,0.0,88,0.00,,,0.00,0,Wunderground v.1.15,2014-02-15 10:44:00,
2014-02-15 04:49:00,39.7,36.4,30.10,NNE,20,0.0,0.0,88,0.00,,,0.00,0,Wunderground v.1.15,2014-02-15 10:49:00,
2014-02-15 04:59:00,39.3,36.3,30.10,NNE,20,0.0,0.0,89,0.00,,,0.00,0,Wunderground v.1.15,2014-02-15 10:59:00,
2014-02-15 05:04:00,39.0,36.0,30.11,NNE,20,0.0,0.0,89,0.00,,,0.00,0,Wunderground v.1.15,2014-02-15 11:04:00,
2014-02-15 05:09:00,38.9,36.2,30.12,NNE,20,0.0,0.0,90,0.00,,,0.00,0,Wunderground v.1.15,2014-02-15 11:09:00,
2014-02-15 05:14:00,38.7,36.0,30.12,NNE,20,0.0,0.0,90,0.00,,,0.00,0,Wunderground v.1.15,2014-02-15 11:14:00,
2014-02-15 05:24:00,38.4,35.7,30.12,NNE,20,0.0,0.0,90,0.00,,,0.00,0,Wunderground v.1.15,2014-02-15 11:24:00,
2014-02-15 05:29:00,38.2,35.5,30.12,NNE,20,0.0,0.0,90,0.00,,,0.00,0,Wunderground v.1.15,2014-02-15 11:29:00,
2014-02-15 05:34:00,37.9,35.5,30.13,NNE,20,0.0,0.0,91,0.00,,,0.00,0,Wunderground v.1.15,2014-02-15 11:34:00,
2014-02-15 05:39:00,37.7,35.3,30.12,NNE,20,0.0,0.0,91,0.00,,,0.00,0,Wunderground v.1.15,2014-02-15 11:39:00,
2014-02-15 05:49:00,37.3,34.9,30.12,NNE,20,0.0,0.0,91,0.00,,,0.00,0,Wunderground v.1.15,2014-02-15 11:49:00,
2014-02-15 05:54:00,37.2,34.8,30.13,NNE,20,0.0,0.0,91,0.00,,,0.00,0,Wunderground v.1.15,2014-02-15 11:54:00,
2014-02-15 05:59:00,37.1,34.7,30.14,NNE,20,0.0,0.0,91,0.00,,,0.00,0,Wunderground v.1.15,2014-02-15 11:59:00,
2014-02-15 06:04:00,37.0,34.6,30.13,NNE,20,0.0,0.0,91,0.00,,,0.00,0,Wunderground v.1.15,2014-02-15 12:04:00,
2014-02-15 06:09:00,36.9,34.5,30.14,NNE,20,0.0,0.0,91,0.00,,,0.00,0,Wunderground v.1.15,2014-02-15 12:09:00,
2014-02-15 06:14:00,36.7,34.3,30.14,NNE,20,0.0,0.0,91,0.00,,,0.00,0,Wunderground v.1.15,2014-02-15 12:14:00,
2014-02-15 06:19:00,36.6,34.2,30.14,NNE,20,0.0,0.0,91,0.00,,,0.00,0,Wunderground v.1.15,2014-02-15 12:19:00,
2014-02-15 06:24:00,36.4,34.0,30.14,NNE,21,0.0,0.0,91,0.00,,,0.00,0,Wunderground v.1.15,2014-02-15 12:24:00,
2014-02-15 06:29:00,36.2,33.8,30.14,NNE,20,0.0,0.0,91,0.00,,,0.00,0,Wunderground v.1.15,2014-02-15 12:29:00,
2014-02-15 06:34:00,36.2,34.1,30.15,NNE,20,0.0,0.0,92,0.00,,,0.00,0,Wunderground v.1.15,2014-02-15 12:34:00,
2014-02-15 06:39:00,36.1,34.0,30.15,NNE,20,0.0,0.0,92,0.00,,,0.00,0,Wunderground v.1.15,2014-02-15 12:39:00,
2014-02-15 06:44:00,36.1,34.0,30.15,NNE,20,0.0,0.0,92,0.00,,,0.00,0,Wunderground v.1.15,2014-02-15 12:44:00,